CZ-2C DEB, 40288

Orbit data source: Space-Track

CZ-2C DEB, 40288 is space debris in SSO originally from a launch on Mon, 27 Oct 2014 UTC launched from the Jiuquan Satellite Launch Center, China (JSC). Debris objects in space refer to the collection of defunct objects orbiting the Earth. Examples of debris include non-operational satellites, rocket bodies, and fragments generated from explosions, collisions, or faulty payload assembly.

Loading next visibility...
Identifier
40288, 2014-066C
Orbit
SSO
Country
Flag of CNCN / PRC
Related business
Manufacturer
CALT
Mission
Spacecraft
Bus & Motor
Unknown
Mass
1 kg wet, 1 kg dry
Launch date (UTC)
2014-10-27 (11 years ago)
Launch vehicle
Unknown
Launch site
Jiuquan Satellite Launch Center, China (JSC)
Object type
Payload
Rocket body
Debris
Shape & HBR
Cone, 0.1 m
Radar Cross Section
0.025 m², Small (<0.1 m²)

Expand to show TLE details & history
Last TLE update: 1 day ago

TLE from 1 day ago
0 CZ-2C DEB
1 40288U 14066C   25259.99345369  .00001685  00000-0  57732-3 0  9997
2 40288  97.9434  37.9425 0161031 302.1815  56.3838 14.30367762565156
Epoch: 2025-09-16T23:50Z
TLE epoch observation values (Epoch: 2025-09-16T23:50:34.398Z)
Latitude
-0.00003°
Longitude
44.12339°
Altitude
730.84 km
Speed
7.522 km/s
True Right ascension
02h 31m 46s
True Declination
0° 00' 00"
Sunlit
Object was in full shadow at epoch
Visualization orbit readout
Latitude
Unknown
Longitude
Unknown
Altitude
Unknown
Speed
Unknown
Apparent Right ascension
Unknown
Apparent Declination
Unknown
Sunlit
N/A
Visualization observer readout
Local Sidereal Time
17:10:44
Azimuth
Unknown
Elevation
Unknown
Doppler factor
Unknown
Orbital elements
Apogee altitude
903.001 km
Perigee altitude
672.219 km
Semi-major axis
7,165.747 km
Eccentricity
0.0161
Inclination
97.9434°
RAAN
37.9425°
Arg. of periapsis
302.1815°
True anomaly
57.9376°
Mean anomaly
56.3838°
Eccentric anomaly
57.15898°
Mean motion
3.57809 °/min
Orbital period
100.61 mins
BSTAR
0.00057732
Loading maneuver chart data...
Computing Atmospheric mass density...
Loading historical data...
Loading historical data...
Loading historical data...
Loading historical data...
Loading historical data...
Loading historical data...
Loading historical data...
Other satellites on launch #66 in the year 2014 (2014-10-27 UTC)

Documentation

Showing up to 5 results
|